Find Intelsat IS-29e

NORAD ID: 41308 Int'l Des: 2016-004 Owner: INTELU Country: US operational
MEOCIRCULAR

当前视图

正在加载3D地球...

关于 Intelsat IS-29e

正在加载描述...

即将过境

Passes for default location (London). Set your location on the main map for personalized predictions.

高度历史

Loading altitude history...

两行轨道根数

1 41308U 16004A 26150.14229743 -.00000103 00000-0 00000+0 0 9997
2 41308 6.4559 70.5307 0001592 36.8193 169.7052 1.00613675 38095
Epoch: May 30, 2026 • Age: 11 hours

当前状态

高度 35684.2 km
速度 3.08 km/s
星下点 1.48°N, 21.35°W
发射日期 Jan 27, 2016
运行时间 10.3 years
类型 communications

技术详情

分类 Payload
质量 6552.00 kg
干质量 2946.00 kg
总质量 6552.00 kg
长度 7.50 m
直径 3.00 m
跨度 44.00 m
形状 Box + 2 panels
制造商 BOES
平台类型 BSS-702MP
阶段状态 In Orbit
所有者/国家 INTELU/US

Most Searched